Location: Kaltenbach
(49.2000°N, 7.7500°E)
Time: 09:18:12
(UTC+00:00)

ARGOS - Pass Details

Date: 24 January 2020
Orbit: 821 x 834 km, 98.5° (Epoch: 27 February)

Event Time Altitude Azimuth Distance (km) Brightness Sun altitude
Exits shadow 19:43:31 36° 318° (NW) 1,286 4.4 -34.3°
Drops below altitude 10° 19:46:52 10° 338° (NNW) 2,444 5.9 -34.8°
Sets 19:49:17 0° 343° (NNW) 3,384 6.7 -35.2°
